Time,TemperatureF,DewpointF,PressureIn,WindDirection,WindDirectionDegrees,WindSpeedMPH,WindSpeedGustMPH,Humidity,HourlyPrecipIn,Conditions,Clouds,dailyrainin,SoftwareType,DateUTC
2013-04-30 00:00:00,52.5,50.8,30.21,ENE,67,1.0,1.0,94,0.00,,,0.00,Wunderground v.1.15,2013-04-30 04:00:00,
2013-04-30 00:05:00,52.4,50.7,30.20,East,92,1.0,1.0,94,0.00,,,0.00,Wunderground v.1.15,2013-04-30 04:05:00,
2013-04-30 00:15:00,52.3,50.6,30.20,ENE,73,1.0,4.0,94,0.00,,,0.00,Wunderground v.1.15,2013-04-30 04:15:00,
2013-04-30 00:20:00,52.2,50.5,30.20,ENE,60,1.0,2.0,94,0.00,,,0.00,Wunderground v.1.15,2013-04-30 04:20:00,
2013-04-30 00:30:00,52.0,50.6,30.20,ENE,66,1.0,1.0,95,0.00,,,0.00,Wunderground v.1.15,2013-04-30 04:30:00,
2013-04-30 00:35:00,52.0,50.3,30.20,ENE,66,0.0,1.0,94,0.00,,,0.00,Wunderground v.1.15,2013-04-30 04:35:00,
2013-04-30 00:45:00,51.9,50.5,30.20,ESE,106,0.0,0.0,95,0.00,,,0.00,Wunderground v.1.15,2013-04-30 04:45:00,
2013-04-30 00:55:00,52.0,50.6,30.20,ESE,106,0.0,0.0,95,0.00,,,0.00,Wunderground v.1.15,2013-04-30 04:55:00,
2013-04-30 01:00:00,51.9,50.5,30.20,ESE,106,0.0,0.0,95,0.00,,,0.00,Wunderground v.1.15,2013-04-30 05:00:00,
2013-04-30 01:10:00,52.0,50.6,30.19,ESE,106,0.0,0.0,95,0.00,,,0.00,Wunderground v.1.15,2013-04-30 05:10:00,
2013-04-30 01:15:00,51.9,50.2,30.19,ENE,58,0.0,0.0,94,0.00,,,0.00,Wunderground v.1.15,2013-04-30 05:15:00,
2013-04-30 01:24:00,51.9,50.2,30.19,ENE,58,0.0,0.0,94,0.00,,,0.00,Wunderground v.1.15,2013-04-30 05:24:00,
2013-04-30 01:30:00,52.0,50.3,30.19,ENE,58,0.0,0.0,94,0.00,,,0.00,Wunderground v.1.15,2013-04-30 05:30:00,
2013-04-30 01:39:00,51.9,50.2,30.19,ENE,58,0.0,0.0,94,0.00,,,0.00,Wunderground v.1.15,2013-04-30 05:39:00,
2013-04-30 01:45:00,52.0,50.3,30.19,ENE,58,0.0,0.0,94,0.00,,,0.00,Wunderground v.1.15,2013-04-30 05:45:00,
2013-04-30 01:55:00,51.9,49.9,30.20,South,188,0.0,1.0,93,0.00,,,0.00,Wunderground v.1.15,2013-04-30 05:55:00,
2013-04-30 02:00:00,52.0,50.0,30.20,SE,143,0.0,0.0,93,0.00,,,0.00,Wunderground v.1.15,2013-04-30 06:00:00,
2013-04-30 02:10:00,52.1,50.1,30.19,NE,34,0.0,1.0,93,0.00,,,0.00,Wunderground v.1.15,2013-04-30 06:10:00,
2013-04-30 02:15:00,52.1,50.1,30.19,NE,34,1.0,1.0,93,0.00,,,0.00,Wunderground v.1.15,2013-04-30 06:15:00,
2013-04-30 02:25:00,52.1,50.1,30.19,NE,34,0.0,1.0,93,0.00,,,0.00,Wunderground v.1.15,2013-04-30 06:25:00,
2013-04-30 02:30:00,52.1,50.1,30.19,NE,34,0.0,1.0,93,0.00,,,0.00,Wunderground v.1.15,2013-04-30 06:30:00,
2013-04-30 02:40:00,52.0,50.0,30.19,NE,34,0.0,1.0,93,0.00,,,0.00,Wunderground v.1.15,2013-04-30 06:40:00,
2013-04-30 02:45:00,52.0,50.0,30.19,NE,34,0.0,1.0,93,0.00,,,0.00,Wunderground v.1.15,2013-04-30 06:45:00,
2013-04-30 02:55:00,52.0,50.0,30.19,NNE,30,0.0,0.0,93,0.00,,,0.00,Wunderground v.1.15,2013-04-30 06:55:00,
2013-04-30 03:00:00,52.0,50.0,30.20,NNE,30,0.0,2.0,93,0.00,,,0.00,Wunderground v.1.15,2013-04-30 07:00:00,
2013-04-30 03:10:00,51.9,49.9,30.20,NE,46,1.0,1.0,93,0.00,,,0.00,Wunderground v.1.15,2013-04-30 07:10:00,
2013-04-30 03:15:00,51.9,49.9,30.20,ESE,106,1.0,1.0,93,0.00,,,0.00,Wunderground v.1.15,2013-04-30 07:15:00,
2013-04-30 03:25:00,51.9,49.9,30.20,NNE,15,0.0,2.0,93,0.00,,,0.00,Wunderground v.1.15,2013-04-30 07:25:00,
2013-04-30 03:30:00,51.9,49.9,30.20,NE,51,1.0,1.0,93,0.00,,,0.00,Wunderground v.1.15,2013-04-30 07:30:00,
2013-04-30 03:40:00,51.9,49.9,30.20,NNE,25,1.0,1.0,93,0.00,,,0.00,Wunderground v.1.15,2013-04-30 07:40:00,
2013-04-30 03:45:00,51.8,49.8,30.20,NNE,25,0.0,1.0,93,0.00,,,0.00,Wunderground v.1.15,2013-04-30 07:45:00,
2013-04-30 03:55:00,51.9,49.9,30.21,NE,55,0.0,0.0,93,0.00,,,0.00,Wunderground v.1.15,2013-04-30 07:55:00,
2013-04-30 04:00:00,51.8,49.8,30.21,East,84,1.0,1.0,93,0.00,,,0.00,Wunderground v.1.15,2013-04-30 08:00:00,
2013-04-30 04:10:00,51.9,49.9,30.21,East,84,1.0,1.0,93,0.00,,,0.00,Wunderground v.1.15,2013-04-30 08:10:00,
2013-04-30 04:15:00,51.8,49.8,30.21,NNE,27,1.0,1.0,93,0.00,,,0.00,Wunderground v.1.15,2013-04-30 08:15:00,
2013-04-30 04:25:00,51.8,49.8,30.21,NE,53,1.0,2.0,93,0.00,,,0.00,Wunderground v.1.15,2013-04-30 08:25:00,
2013-04-30 04:30:00,51.8,49.8,30.21,NE,53,1.0,2.0,93,0.00,,,0.00,Wunderground v.1.15,2013-04-30 08:30:00,
2013-04-30 04:40:00,51.8,49.8,30.21,NE,44,1.0,1.0,93,0.00,,,0.00,Wunderground v.1.15,2013-04-30 08:40:00,
2013-04-30 04:45:00,51.8,49.8,30.21,NE,44,0.0,1.0,93,0.00,,,0.00,Wunderground v.1.15,2013-04-30 08:45:00,
2013-04-30 04:55:00,51.8,49.8,30.21,ESE,107,0.0,0.0,93,0.00,,,0.00,Wunderground v.1.15,2013-04-30 08:55:00,
2013-04-30 05:00:00,51.7,49.7,30.22,ENE,61,0.0,0.0,93,0.00,,,0.00,Wunderground v.1.15,2013-04-30 09:00:00,
2013-04-30 05:10:00,51.8,49.5,30.22,ENE,65,1.0,1.0,92,0.00,,,0.00,Wunderground v.1.15,2013-04-30 09:10:00,
2013-04-30 05:15:00,51.8,49.5,30.22,NE,51,1.0,2.0,92,0.00,,,0.00,Wunderground v.1.15,2013-04-30 09:15:00,
2013-04-30 05:25:00,51.7,49.5,30.22,NE,49,1.0,1.0,92,0.00,,,0.00,Wunderground v.1.15,2013-04-30 09:25:00,
2013-04-30 05:30:00,51.7,49.5,30.22,ENE,60,0.0,0.0,92,0.00,,,0.00,Wunderground v.1.15,2013-04-30 09:30:00,
2013-04-30 05:40:00,51.8,49.8,30.22,ENE,60,0.0,0.0,93,0.00,,,0.00,Wunderground v.1.15,2013-04-30 09:40:00,
2013-04-30 05:45:00,51.7,49.5,30.23,ENE,60,0.0,0.0,92,0.00,,,0.00,Wunderground v.1.15,2013-04-30 09:45:00,
2013-04-30 05:55:00,51.7,49.5,30.23,ENE,60,0.0,0.0,92,0.00,,,0.00,Wunderground v.1.15,2013-04-30 09:55:00,
2013-04-30 06:00:00,51.7,49.5,30.23,East,93,0.0,0.0,92,0.00,,,0.00,Wunderground v.1.15,2013-04-30 10:00:00,
2013-04-30 06:10:00,51.7,49.5,30.24,ESE,104,0.0,0.0,92,0.00,,,0.00,Wunderground v.1.15,2013-04-30 10:10:00,
2013-04-30 06:15:00,51.7,49.5,30.24,ESE,106,0.0,0.0,92,0.00,,,0.00,Wunderground v.1.15,2013-04-30 10:15:00,
2013-04-30 06:25:00,51.8,49.5,30.24,ESE,106,0.0,0.0,92,0.00,,,0.00,Wunderground v.1.15,2013-04-30 10:25:00,
2013-04-30 06:30:00,51.7,49.5,30.25,NE,49,0.0,0.0,92,0.00,,,0.00,Wunderground v.1.15,2013-04-30 10:30:00,
2013-04-30 06:40:00,51.7,49.5,30.25,ENE,78,0.0,0.0,92,0.00,,,0.00,Wunderground v.1.15,2013-04-30 10:40:00,
2013-04-30 06:45:00,51.7,49.5,30.25,ESE,104,0.0,0.0,92,0.00,,,0.00,Wunderground v.1.15,2013-04-30 10:45:00,
2013-04-30 06:55:00,51.8,49.5,30.25,East,88,0.0,0.0,92,0.00,,,0.00,Wunderground v.1.15,2013-04-30 10:55:00,
2013-04-30 07:00:00,51.8,49.3,30.25,East,88,0.0,0.0,91,0.00,,,0.00,Wunderground v.1.15,2013-04-30 11:00:00,
2013-04-30 07:10:00,51.8,49.3,30.26,East,99,1.0,1.0,91,0.00,,,0.00,Wunderground v.1.15,2013-04-30 11:10:00,
2013-04-30 07:15:00,51.8,49.3,30.26,ENE,71,0.0,1.0,91,0.00,,,0.00,Wunderground v.1.15,2013-04-30 11:15:00,
2013-04-30 07:25:00,51.9,49.4,30.27,ENE,71,0.0,0.0,91,0.00,,,0.00,Wunderground v.1.15,2013-04-30 11:25:00,
2013-04-30 07:30:00,51.9,49.4,30.27,ESE,103,0.0,1.0,91,0.00,,,0.00,Wunderground v.1.15,2013-04-30 11:30:00,
2013-04-30 07:40:00,51.9,49.6,30.27,ENE,60,0.0,0.0,92,0.00,,,0.00,Wunderground v.1.15,2013-04-30 11:40:00,
2013-04-30 07:45:00,51.8,49.5,30.27,ENE,60,0.0,1.0,92,0.00,,,0.00,Wunderground v.1.15,2013-04-30 11:45:00,
2013-04-30 07:55:00,51.8,49.8,30.28,ENE,60,0.0,0.0,93,0.00,,,0.00,Wunderground v.1.15,2013-04-30 11:55:00,
2013-04-30 08:00:00,51.9,49.9,30.27,ENE,60,0.0,0.0,93,0.00,,,0.00,Wunderground v.1.15,2013-04-30 12:00:00,
2013-04-30 08:10:00,52.1,49.8,30.28,ENE,60,0.0,0.0,92,0.00,,,0.00,Wunderground v.1.15,2013-04-30 12:10:00,
2013-04-30 08:15:00,52.3,50.0,30.28,ENE,60,0.0,0.0,92,0.00,,,0.00,Wunderground v.1.15,2013-04-30 12:15:00,
2013-04-30 08:25:00,52.8,50.2,30.28,ENE,60,1.0,2.0,91,0.00,,,0.00,Wunderground v.1.15,2013-04-30 12:25:00,
2013-04-30 08:30:00,53.0,50.1,30.28,ENE,60,0.0,0.0,90,0.00,,,0.00,Wunderground v.1.15,2013-04-30 12:30:00,
2013-04-30 08:40:00,53.3,50.1,30.28,ENE,60,0.0,0.0,89,0.00,,,0.00,Wunderground v.1.15,2013-04-30 12:40:00,
2013-04-30 08:45:00,53.5,50.6,30.28,NNE,22,1.0,1.0,90,0.00,,,0.00,Wunderground v.1.15,2013-04-30 12:45:00,
2013-04-30 08:55:00,53.9,50.4,30.28,NNE,15,1.0,1.0,88,0.00,,,0.00,Wunderground v.1.15,2013-04-30 12:55:00,
2013-04-30 09:00:00,54.1,50.3,30.28,East,80,2.0,2.0,87,0.00,,,0.00,Wunderground v.1.15,2013-04-30 13:00:00,
2013-04-30 09:10:00,54.7,51.2,30.28,ENE,67,2.0,3.0,88,0.00,,,0.00,Wunderground v.1.15,2013-04-30 13:10:00,
2013-04-30 09:15:00,55.2,51.1,30.28,ENE,61,2.0,3.0,86,0.00,,,0.00,Wunderground v.1.15,2013-04-30 13:15:00,
2013-04-30 09:25:00,56.0,51.2,30.28,ESE,120,2.0,2.0,84,0.00,,,0.00,Wunderground v.1.15,2013-04-30 13:25:00,
2013-04-30 09:30:00,56.3,50.9,30.28,East,81,2.0,2.0,82,0.00,,,0.00,Wunderground v.1.15,2013-04-30 13:30:00,
2013-04-30 09:40:00,57.0,51.6,30.28,ENE,72,1.0,1.0,82,0.00,,,0.00,Wunderground v.1.15,2013-04-30 13:40:00,
2013-04-30 09:45:00,57.3,51.5,30.28,NNE,24,1.0,3.0,81,0.00,,,0.00,Wunderground v.1.15,2013-04-30 13:45:00,
2013-04-30 09:55:00,57.5,50.0,30.28,ENE,59,1.0,3.0,76,0.00,,,0.00,Wunderground v.1.15,2013-04-30 13:55:00,
2013-04-30 10:00:00,57.7,51.2,30.28,ENE,63,2.0,2.0,79,0.00,,,0.00,Wunderground v.1.15,2013-04-30 14:00:00,
2013-04-30 10:10:00,58.1,50.2,30.28,ESE,111,2.0,2.0,75,0.00,,,0.00,Wunderground v.1.15,2013-04-30 14:10:00,
2013-04-30 10:15:00,58.6,51.8,30.28,ESE,115,1.0,2.0,78,0.00,,,0.00,Wunderground v.1.15,2013-04-30 14:15:00,
2013-04-30 10:25:00,59.9,52.0,30.28,ENE,77,1.0,1.0,75,0.00,,,0.00,Wunderground v.1.15,2013-04-30 14:25:00,
2013-04-30 10:30:00,60.1,51.0,30.28,East,100,1.0,1.0,72,0.00,,,0.00,Wunderground v.1.15,2013-04-30 14:30:00,
2013-04-30 10:40:00,60.6,50.8,30.29,ENE,67,1.0,1.0,70,0.00,,,0.00,Wunderground v.1.15,2013-04-30 14:40:00,
2013-04-30 10:45:00,60.7,50.9,30.29,ENE,71,1.0,2.0,70,0.00,,,0.00,Wunderground v.1.15,2013-04-30 14:45:00,
2013-04-30 10:55:00,60.9,50.7,30.28,ENE,74,1.0,2.0,69,0.00,,,0.00,Wunderground v.1.15,2013-04-30 14:55:00,
2013-04-30 11:00:00,61.2,50.9,30.28,East,88,1.0,1.0,69,0.00,,,0.00,Wunderground v.1.15,2013-04-30 15:00:00,
2013-04-30 11:10:00,61.2,50.2,30.28,SE,134,2.0,2.0,67,0.00,,,0.00,Wunderground v.1.15,2013-04-30 15:10:00,
2013-04-30 11:15:00,61.3,49.4,30.28,East,82,3.0,3.0,65,0.00,,,0.00,Wunderground v.1.15,2013-04-30 15:15:00,
2013-04-30 11:25:00,62.0,49.7,30.28,East,84,2.0,5.0,64,0.00,,,0.00,Wunderground v.1.15,2013-04-30 15:25:00,
2013-04-30 11:30:00,62.1,46.2,30.28,South,172,2.0,2.0,56,0.00,,,0.00,Wunderground v.1.15,2013-04-30 15:30:00,
2013-04-30 11:40:00,62.9,46.5,30.28,ESE,119,1.0,1.0,55,0.00,,,0.00,Wunderground v.1.15,2013-04-30 15:40:00,
2013-04-30 11:45:00,63.0,47.1,30.28,East,92,1.0,1.0,56,0.00,,,0.00,Wunderground v.1.15,2013-04-30 15:45:00,
2013-04-30 11:55:00,62.5,47.5,30.28,ESE,109,2.0,2.0,58,0.00,,,0.00,Wunderground v.1.15,2013-04-30 15:55:00,
2013-04-30 12:00:00,62.5,48.4,30.28,ENE,74,1.0,2.0,60,0.00,,,0.00,Wunderground v.1.15,2013-04-30 16:00:00,
2013-04-30 12:10:00,62.8,47.8,30.27,ENE,78,1.0,2.0,58,0.00,,,0.00,Wunderground v.1.15,2013-04-30 16:10:00,
2013-04-30 12:15:00,63.3,48.7,30.27,NNE,30,1.0,3.0,59,0.00,,,0.00,Wunderground v.1.15,2013-04-30 16:15:00,
2013-04-30 12:25:00,63.5,46.1,30.27,ESE,123,2.0,3.0,53,0.00,,,0.00,Wunderground v.1.15,2013-04-30 16:25:00,
2013-04-30 12:30:00,63.9,47.9,30.27,East,84,3.0,5.0,56,0.00,,,0.00,Wunderground v.1.15,2013-04-30 16:30:00,
2013-04-30 12:40:00,65.0,46.9,30.27,South,187,1.0,3.0,52,0.00,,,0.00,Wunderground v.1.15,2013-04-30 16:40:00,
2013-04-30 12:45:00,65.4,46.3,30.27,SSW,198,2.0,3.0,50,0.00,,,0.00,Wunderground v.1.15,2013-04-30 16:45:00,
2013-04-30 12:55:00,65.3,46.2,30.27,East,84,2.0,6.0,50,0.00,,,0.00,Wunderground v.1.15,2013-04-30 16:55:00,
2013-04-30 13:00:00,65.1,46.5,30.27,ENE,78,3.0,3.0,51,0.00,,,0.00,Wunderground v.1.15,2013-04-30 17:00:00,
2013-04-30 13:10:00,65.4,47.3,30.27,SSE,163,1.0,1.0,52,0.00,,,0.00,Wunderground v.1.15,2013-04-30 17:10:00,
2013-04-30 13:15:00,65.6,45.9,30.27,South,184,2.0,2.0,49,0.00,,,0.00,Wunderground v.1.15,2013-04-30 17:15:00,
2013-04-30 13:25:00,65.6,45.9,30.27,ESE,102,3.0,4.0,49,0.00,,,0.00,Wunderground v.1.15,2013-04-30 17:25:00,
2013-04-30 13:30:00,66.0,46.8,30.27,ENE,77,3.0,4.0,50,0.00,,,0.00,Wunderground v.1.15,2013-04-30 17:30:00,
2013-04-30 13:40:00,66.5,46.7,30.26,SSW,197,2.0,3.0,49,0.00,,,0.00,Wunderground v.1.15,2013-04-30 17:40:00,
2013-04-30 13:45:00,66.4,45.5,30.26,ESE,107,3.0,3.0,47,0.00,,,0.00,Wunderground v.1.15,2013-04-30 17:45:00,
2013-04-30 13:55:00,66.9,47.1,30.26,ENE,69,3.0,9.0,49,0.00,,,0.00,Wunderground v.1.15,2013-04-30 17:55:00,
2013-04-30 14:00:00,67.1,45.6,30.26,ESE,116,4.0,4.0,46,0.00,,,0.00,Wunderground v.1.15,2013-04-30 18:00:00,
2013-04-30 14:10:00,68.2,45.4,30.26,ENE,73,1.0,5.0,44,0.00,,,0.00,Wunderground v.1.15,2013-04-30 18:10:00,
2013-04-30 14:15:00,67.5,45.4,30.25,SE,129,3.0,5.0,45,0.00,,,0.00,Wunderground v.1.15,2013-04-30 18:15:00,
2013-04-30 14:25:00,68.7,46.5,30.26,SE,124,2.0,3.0,45,0.00,,,0.00,Wunderground v.1.15,2013-04-30 18:25:00,
2013-04-30 14:30:00,68.6,44.6,30.26,ESE,121,3.0,8.0,42,0.00,,,0.00,Wunderground v.1.15,2013-04-30 18:30:00,
2013-04-30 14:40:00,68.0,43.4,30.26,East,100,3.0,6.0,41,0.00,,,0.00,Wunderground v.1.15,2013-04-30 18:40:00,
2013-04-30 14:45:00,67.1,43.2,30.26,ENE,57,3.0,6.0,42,0.00,,,0.00,Wunderground v.1.15,2013-04-30 18:45:00,
2013-04-30 14:55:00,66.5,42.7,30.27,SSW,197,2.0,3.0,42,0.00,,,0.00,Wunderground v.1.15,2013-04-30 18:55:00,
2013-04-30 15:00:00,66.5,42.7,30.27,East,86,1.0,1.0,42,0.00,,,0.00,Wunderground v.1.15,2013-04-30 19:00:00,
2013-04-30 15:10:00,66.3,41.9,30.26,ENE,72,1.0,3.0,41,0.00,,,0.00,Wunderground v.1.15,2013-04-30 19:10:00,
2013-04-30 15:15:00,66.4,42.6,30.26,SSE,150,1.0,3.0,42,0.00,,,0.00,Wunderground v.1.15,2013-04-30 19:15:00,
2013-04-30 15:25:00,66.7,42.9,30.26,ENE,69,3.0,5.0,42,0.00,,,0.00,Wunderground v.1.15,2013-04-30 19:25:00,
2013-04-30 15:30:00,66.8,44.2,30.26,South,189,2.0,3.0,44,0.00,,,0.00,Wunderground v.1.15,2013-04-30 19:30:00,
2013-04-30 15:40:00,66.6,42.2,30.26,SSE,163,4.0,4.0,41,0.00,,,0.00,Wunderground v.1.15,2013-04-30 19:40:00,
2013-04-30 15:45:00,67.1,43.2,30.27,ENE,70,3.0,4.0,42,0.00,,,0.00,Wunderground v.1.15,2013-04-30 19:45:00,
2013-04-30 15:55:00,66.8,42.3,30.27,East,79,4.0,4.0,41,0.00,,,0.00,Wunderground v.1.15,2013-04-30 19:55:00,
2013-04-30 16:00:00,66.7,41.6,30.27,East,89,3.0,3.0,40,0.00,,,0.00,Wunderground v.1.15,2013-04-30 20:00:00,
2013-04-30 16:10:00,66.5,42.7,30.27,SE,141,2.0,2.0,42,0.00,,,0.00,Wunderground v.1.15,2013-04-30 20:10:00,
2013-04-30 16:15:00,66.7,41.6,30.27,ENE,77,1.0,2.0,40,0.00,,,0.00,Wunderground v.1.15,2013-04-30 20:15:00,
2013-04-30 16:25:00,66.7,40.3,30.27,ENE,74,2.0,2.0,38,0.00,,,0.00,Wunderground v.1.15,2013-04-30 20:25:00,
2013-04-30 16:30:00,66.5,39.4,30.27,NE,50,2.0,4.0,37,0.00,,,0.00,Wunderground v.1.15,2013-04-30 20:30:00,
2013-04-30 16:40:00,66.3,39.9,30.27,ESE,103,2.0,2.0,38,0.00,,,0.00,Wunderground v.1.15,2013-04-30 20:40:00,
2013-04-30 16:45:00,66.5,39.4,30.28,South,189,1.0,2.0,37,0.00,,,0.00,Wunderground v.1.15,2013-04-30 20:45:00,
2013-04-30 16:55:00,66.3,39.2,30.28,ESE,112,2.0,2.0,37,0.00,,,0.00,Wunderground v.1.15,2013-04-30 20:55:00,
2013-04-30 17:00:00,66.2,39.1,30.28,SE,128,2.0,2.0,37,0.00,,,0.00,Wunderground v.1.15,2013-04-30 21:00:00,
2013-04-30 17:10:00,66.2,39.8,30.28,East,97,2.0,2.0,38,0.00,,,0.00,Wunderground v.1.15,2013-04-30 21:10:00,
2013-04-30 17:15:00,66.2,40.5,30.28,ENE,78,2.0,2.0,39,0.00,,,0.00,Wunderground v.1.15,2013-04-30 21:15:00,
2013-04-30 17:25:00,65.9,38.2,30.28,East,98,2.0,4.0,36,0.00,,,0.00,Wunderground v.1.15,2013-04-30 21:25:00,
2013-04-30 17:30:00,65.7,36.5,30.28,ESE,120,3.0,5.0,34,0.00,,,0.00,Wunderground v.1.15,2013-04-30 21:30:00,
2013-04-30 17:40:00,65.7,35.8,30.27,East,91,2.0,2.0,33,0.00,,,0.00,Wunderground v.1.15,2013-04-30 21:40:00,
2013-04-30 17:45:00,65.6,37.9,30.27,ESE,107,1.0,2.0,36,0.00,,,0.00,Wunderground v.1.15,2013-04-30 21:45:00,
2013-04-30 17:55:00,65.2,36.1,30.27,SE,142,2.0,3.0,34,0.00,,,0.00,Wunderground v.1.15,2013-04-30 21:55:00,
2013-04-30 18:00:00,65.0,34.4,30.28,East,97,2.0,2.0,32,0.00,,,0.00,Wunderground v.1.15,2013-04-30 22:00:00,
2013-04-30 18:10:00,64.5,34.0,30.28,ESE,123,2.0,3.0,32,0.00,,,0.00,Wunderground v.1.15,2013-04-30 22:10:00,
2013-04-30 18:15:00,64.2,32.1,30.28,SE,132,2.0,3.0,30,0.00,,,0.00,Wunderground v.1.15,2013-04-30 22:15:00,
2013-04-30 18:25:00,63.9,31.0,30.28,East,96,1.0,2.0,29,0.00,,,0.00,Wunderground v.1.15,2013-04-30 22:25:00,
2013-04-30 18:30:00,63.8,30.0,30.28,ESE,106,1.0,1.0,28,0.00,,,0.00,Wunderground v.1.15,2013-04-30 22:30:00,
2013-04-30 18:40:00,63.4,28.8,30.28,ENE,69,1.0,5.0,27,0.00,,,0.00,Wunderground v.1.15,2013-04-30 22:40:00,
2013-04-30 18:45:00,63.1,26.7,30.29,ENE,76,2.0,5.0,25,0.00,,,0.00,Wunderground v.1.15,2013-04-30 22:45:00,
2013-04-30 18:55:00,62.7,28.2,30.29,East,96,2.0,2.0,27,0.00,,,0.00,Wunderground v.1.15,2013-04-30 22:55:00,
2013-04-30 19:00:00,62.4,26.1,30.29,ENE,77,2.0,3.0,25,0.00,,,0.00,Wunderground v.1.15,2013-04-30 23:00:00,
2013-04-30 19:10:00,61.9,24.7,30.29,SSE,159,2.0,2.0,24,0.00,,,0.00,Wunderground v.1.15,2013-04-30 23:10:00,
2013-04-30 19:15:00,61.7,23.5,30.29,East,89,2.0,2.0,23,0.00,,,0.00,Wunderground v.1.15,2013-04-30 23:15:00,
2013-04-30 19:25:00,61.2,26.0,30.30,SE,127,0.0,1.0,26,0.00,,,0.00,Wunderground v.1.15,2013-04-30 23:25:00,
2013-04-30 19:30:00,60.8,27.5,30.30,East,79,0.0,0.0,28,0.00,,,0.00,Wunderground v.1.15,2013-04-30 23:30:00,
2013-04-30 19:40:00,60.2,24.2,30.30,ESE,107,1.0,1.0,25,0.00,,,0.00,Wunderground v.1.15,2013-04-30 23:40:00,
2013-04-30 19:45:00,59.9,24.9,30.30,ENE,74,1.0,4.0,26,0.00,,,0.00,Wunderground v.1.15,2013-04-30 23:45:00,
2013-04-30 19:55:00,59.4,27.1,30.30,SSW,213,1.0,1.0,29,0.00,,,0.00,Wunderground v.1.15,2013-04-30 23:55:00,
2013-04-30 20:00:00,59.1,25.1,30.31,South,173,0.0,0.0,27,0.00,,,0.00,Wunderground v.1.15,2013-05-01 00:00:00,
2013-04-30 20:10:00,58.4,24.5,30.31,NE,53,0.0,0.0,27,0.00,,,0.00,Wunderground v.1.15,2013-05-01 00:10:00,
2013-04-30 20:15:00,58.1,26.0,30.31,ESE,105,0.0,1.0,29,0.00,,,0.00,Wunderground v.1.15,2013-05-01 00:15:00,
2013-04-30 20:25:00,57.7,24.8,30.31,SE,124,1.0,3.0,28,0.00,,,0.00,Wunderground v.1.15,2013-05-01 00:25:00,
2013-04-30 20:30:00,57.4,27.0,30.31,SE,126,1.0,1.0,31,0.00,,,0.00,Wunderground v.1.15,2013-05-01 00:30:00,
2013-04-30 20:40:00,56.5,27.0,30.31,ENE,76,0.0,0.0,32,0.00,,,0.00,Wunderground v.1.15,2013-05-01 00:40:00,
2013-04-30 20:45:00,56.1,25.8,30.31,ENE,69,0.0,2.0,31,0.00,,,0.00,Wunderground v.1.15,2013-05-01 00:45:00,
2013-04-30 20:55:00,55.7,27.7,30.31,East,92,1.0,1.0,34,0.00,,,0.00,Wunderground v.1.15,2013-05-01 00:55:00,
2013-04-30 21:00:00,55.4,27.5,30.31,NE,39,0.0,2.0,34,0.00,,,0.00,Wunderground v.1.15,2013-05-01 01:00:00,
2013-04-30 21:10:00,55.1,27.9,30.32,East,84,0.0,0.0,35,0.00,,,0.00,Wunderground v.1.15,2013-05-01 01:10:00,
2013-04-30 21:15:00,54.8,28.3,30.32,East,84,0.0,0.0,36,0.00,,,0.00,Wunderground v.1.15,2013-05-01 01:15:00,
2013-04-30 21:25:00,54.3,27.9,30.32,ENE,78,0.0,0.0,36,0.00,,,0.00,Wunderground v.1.15,2013-05-01 01:25:00,
2013-04-30 21:30:00,54.1,27.0,30.33,NE,40,1.0,1.0,35,0.00,,,0.00,Wunderground v.1.15,2013-05-01 01:30:00,
2013-04-30 21:40:00,53.9,28.8,30.33,NE,40,0.0,0.0,38,0.00,,,0.00,Wunderground v.1.15,2013-05-01 01:40:00,
2013-04-30 21:45:00,53.6,30.4,30.33,NE,40,0.0,0.0,41,0.00,,,0.00,Wunderground v.1.15,2013-05-01 01:45:00,
2013-04-30 21:55:00,52.8,30.9,30.33,NE,40,0.0,0.0,43,0.00,,,0.00,Wunderground v.1.15,2013-05-01 01:55:00,
2013-04-30 22:00:00,52.3,31.0,30.33,NE,40,0.0,0.0,44,0.00,,,0.00,Wunderground v.1.15,2013-05-01 02:00:00,
2013-04-30 22:10:00,51.4,32.3,30.33,NE,40,0.0,0.0,48,0.00,,,0.00,Wunderground v.1.15,2013-05-01 02:10:00,
2013-04-30 22:15:00,51.0,32.5,30.33,NE,40,0.0,0.0,49,0.00,,,0.00,Wunderground v.1.15,2013-05-01 02:15:00,
2013-04-30 22:25:00,50.5,31.5,30.33,ENE,72,0.0,0.0,48,0.00,,,0.00,Wunderground v.1.15,2013-05-01 02:25:00,
2013-04-30 22:30:00,50.3,33.3,30.33,ENE,72,0.0,0.0,52,0.00,,,0.00,Wunderground v.1.15,2013-05-01 02:30:00,
2013-04-30 22:40:00,49.9,32.0,30.33,ENE,72,0.0,0.0,50,0.00,,,0.00,Wunderground v.1.15,2013-05-01 02:40:00,
2013-04-30 22:45:00,49.7,33.7,30.33,ENE,72,0.0,0.0,54,0.00,,,0.00,Wunderground v.1.15,2013-05-01 02:45:00,
2013-04-30 22:55:00,49.4,32.5,30.33,ENE,72,0.0,0.0,52,0.00,,,0.00,Wunderground v.1.15,2013-05-01 02:55:00,
2013-04-30 23:00:00,49.1,34.9,30.33,ENE,72,0.0,0.0,58,0.00,,,0.00,Wunderground v.1.15,2013-05-01 03:00:00,
2013-04-30 23:10:00,48.0,31.7,30.33,ENE,72,0.0,0.0,53,0.00,,,0.00,Wunderground v.1.15,2013-05-01 03:10:00,
2013-04-30 23:15:00,47.7,32.8,30.33,ENE,72,0.0,0.0,56,0.00,,,0.00,Wunderground v.1.15,2013-05-01 03:15:00,
2013-04-30 23:25:00,47.0,33.4,30.33,ENE,72,0.0,0.0,59,0.00,,,0.00,Wunderground v.1.15,2013-05-01 03:25:00,
2013-04-30 23:30:00,46.5,35.0,30.33,ENE,72,0.0,0.0,64,0.00,,,0.00,Wunderground v.1.15,2013-05-01 03:30:00,
2013-04-30 23:40:00,45.7,32.6,30.33,ENE,72,0.0,0.0,60,0.00,,,0.00,Wunderground v.1.15,2013-05-01 03:40:00,
2013-04-30 23:45:00,45.5,33.6,30.34,ENE,72,0.0,0.0,63,0.00,,,0.00,Wunderground v.1.15,2013-05-01 03:45:00,
2013-04-30 23:55:00,45.0,33.9,30.34,ENE,72,0.0,0.0,65,0.00,,,0.00,Wunderground v.1.15,2013-05-01 03:55:00,